Location: Highridge
(54.0333°N, 114.1333°W)
Time: 08:31:31
(UTC+00:00)

DUCHIFAT 1 - Visible Passes

Search period start: 11 November 2024 00:00
Search period end: 21 November 2024 00:00
Orbit: 513 x 526 km, 98.1° (Epoch: 10 November)

Date Brightness Start Highest point End Pass type
(mag) Time Alt. Az. Time Alt. Az. Time Alt. Az.
11 Nov ? 00:38:11 10° SSW 00:41:41 35° W 00:45:13 10° NNW visible
11 Nov ? 12:04:35 10° NE 12:06:39 14° E 12:08:42 10° ESE visible
11 Nov ? 13:37:22 10° NNE 13:41:12 74° WNW 13:45:01 10° SSW visible
12 Nov ? 00:24:19 10° S 00:28:00 49° W 00:31:43 10° NNW visible
12 Nov ? 11:52:18 10° ENE 11:52:48 10° E 11:53:18 10° E visible
12 Nov ? 13:23:41 10° NNE 13:27:32 81° ESE 13:31:22 10° SSW visible
13 Nov ? 13:09:58 10° NNE 13:13:45 58° ESE 13:17:32 10° S visible
14 Nov ? 01:33:37 10° WSW 01:35:05 12° W 01:36:34 10° WNW visible
14 Nov ? 12:56:14 10° NNE 12:59:53 41° E 13:03:31 10° S visible
15 Nov ? 01:18:39 10° SW 01:21:04 16° W 01:23:29 10° NW visible
15 Nov ? 12:42:28 10° NNE 12:45:54 30° E 12:49:18 10° SSE visible
15 Nov ? 14:16:32 10° N 14:19:57 32° WNW 14:23:23 10° SW visible
16 Nov ? 01:04:00 10° SW 01:06:58 22° W 01:09:58 10° NW visible
16 Nov ? 12:28:44 10° NE 12:31:49 22° E 12:34:52 10° SSE visible
16 Nov ? 14:02:24 10° N 14:06:02 43° WNW 14:09:40 10° SW visible
17 Nov ? 00:49:29 10° SSW 00:52:49 29° W 00:56:12 10° NW visible
17 Nov ? 12:15:04 10° NE 12:17:37 17° E 12:20:07 10° SE visible
17 Nov ? 13:48:14 10° N 13:52:01 60° WNW 13:55:46 10° SSW visible
18 Nov ? 00:35:04 10° S 00:38:38 40° W 00:42:15 10° NNW visible
18 Nov ? 12:01:40 10° ENE 12:03:18 12° E 12:04:55 10° ESE visible
18 Nov ? 13:34:03 10° NNE 13:37:53 83° WNW 13:41:42 10° SSW visible
19 Nov ? 00:20:41 10° S 00:24:24 56° WSW 00:28:10 10° NNW visible
19 Nov ? 13:19:50 10° NNE 13:23:39 70° ESE 13:27:27 10° S visible
20 Nov ? 00:06:20 10° SSE 00:10:07 80° WSW 00:13:56 10° NNW visible
20 Nov ? 13:05:35 10° NNE 13:09:19 49° E 13:13:00 10° S visible
